Overview Statistics Trail Chart Weather Telemetry Raw packets
 

This is the latest recevied weather packets stored in our database for station/object DL2AKT-20. If no packets are shown the sender has not sent any weather packets the latest 10 day(s).

<< 27 28 29 30 31 32 33 >>
Time Temp. Humidity Pressure Rain* Wind** Luminosity Snow
1777556966 17.78° C 23% 1031.9 hPa - - - -
1777556065 17.78° C 23% 1032.1 hPa - - - -
1777555165 18.33° C 22% 1032 hPa - - - -
1777554265 17.78° C 22% 1032.2 hPa - - - -
1777553370 18.33° C 23% 1032.3 hPa - - - -
1777552470 17.78° C 21% 1032.3 hPa - - - -
1777551569 17.78° C 21% 1032.6 hPa - - - -
1777550669 17.78° C 20% 1032.7 hPa - - - -
1777549769 17.78° C 19% 1032.9 hPa - - - -
1777548869 17.22° C 21% 1032.9 hPa - - - -
1777547969 17.22° C 17% 1032.8 hPa - - - -
1777547069 17.22° C 18% 1033 hPa - - - -
1777546170 17.22° C 19% 1033 hPa - - - -
1777545269 16.11° C 21% 1033 hPa - - - -
1777544369 16.11° C 20% 1033.2 hPa - - - -
1777543469 15.56° C 21% 1033.3 hPa - - - -
1777542569 15.56° C 20% 1033.3 hPa - - - -
1777541669 15° C 20% 1033.4 hPa - - - -
1777540769 15° C 23% 1033.5 hPa - - - -
1777539869 14.44° C 23% 1033.5 hPa - - - -
1777538969 13.89° C 24% 1033.8 hPa - - - -
1777538068 13.33° C 24% 1033.9 hPa - - - -
1777537167 13.33° C 23% 1033.9 hPa - - - -
1777536267 13.33° C 23% 1033.9 hPa - - - -
1777535367 13.33° C 23% 1033.9 hPa - - - -

* Rain since midnight (hover to see other rain measurements)
** Current wind speed in m/s (hover to see current wind gust speed)